Pablo Ortega fue el más rápido en la primera tanda de entrenamientos de la Clase 2 del Turismo Nacional, en el marco de la 11ª fecha de la temporada. El piloto tucumano marcó un tiempo de 1:25.064 para ser la referencia inicial con el Fiat Argo que atiende el TB Racing.

En el Autódromo Provincia de La Pampa, el segundo lugar quedó en manos de Lucas Tedeschi, a sólo una centésima; mientras que Miguel Ciaurro finalizó en el tercer puesto, 7 centésimas de la punta.

Por su parte, las diez primeras posiciones las completaron Christian Bodrato Mionetto, Juan Ignacio Torres, Juan Pablo Aquiles, Facundo Della Motta, Juan Ignacio Canela, Matías Signorelli y Gerónimo Núñez.

    1er. Entrenamiento TN Clase 2 – Toay    

Pos. Piloto Marca Vtas. Tiempo Dif.
1 114 PABLO ORTEGA FIAT ARGO 12 1:25.064
2 4 LUCAS TEDESCHI TOYOTA ETIOS 13 1:25.076 0.012
3 15 MIGUEL CIAURRO VW TREND 11 1:25.143 0.079
4 113 CHRISTIAN BODRATO MIONETTO TOYOTA ETIOS 12 1:25.269 0.205
5 199 JUAN I. TORRES CHEVROLET CORSA 13 1:25.297 0.233
6 82 JUAN PABLO AQUILES TOYOTA ETIOS 12 1:25.341 0.277
7 86 FACUNDO DELLA MOTTA TOYOTA ETIOS 10 1:25.386 0.322
8 80 JUAN I. CANELA VW TREND 13 1:25.410 0.346
9 112 MATIAS SIGNORELLI FIAT ARGO 11 1:25.437 0.373
10 3 GERONIMO NUÑEZ TOYOTA ETIOS 13 1:25.484 0.420
11 89 RENZO BLOTTA TOYOTA ETIOS 11 1:25.524 0.460
12 10 ALEJO BORGIANI VW TREND 11 1:25.535 0.471
13 61 FACUNDO BUSTOS VW TREND 13 1:25.552 0.488
14 35 SERGIO FERNANDEZ NISSAN MARCH 14 1:25.633 0.569
15 55 MARCELO GUEVARA NISSAN MARCH 11 1:25.679 0.615
16 14 IGNACIO PROCACITTO VW TREND 10 1:25.737 0.673
17 8 SEBASTIAN PEREZ CHEVROLET ONIX 14 1:25.753 0.689
18 79 MARCO VERONESI TOYOTA ETIOS 13 1:25.796 0.732
19 2 EMANUEL ABDALA FIESTA KINETIC 7 1:25.806 0.742
20 84 LUCAS YEROBI FIESTA KINETIC 11 1:25.856 0.792
21 150 JUAN MARTIN ELUCHANS NISSAN MARCH 12 1:25.875 0.811
22 28 MATEO NUÑEZ NISSAN MARCH 12 1:25.892 0.828
23 12 MAXIMILIANO BESTANI FIESTA KINETIC 11 1:25.905 0.841
24 9 CHRISTIAN ABDALA TOYOTA ETIOS 15 1:25.994 0.930
25 21 FERNANDO GOMEZ FREDES TOYOTA ETIOS 12 1:25.999 0.935
26 116 ALEJANDRO TORRISI NISSAN MARCH 13 1:26.113 1.049
27 98 ALEX CONCI FIESTA KINETIC 13 1:26.332 1.268
28 16 DIEGO LEANEZ TOYOTA ETIOS 12 1:26.348 1.284
29 7 FACUNDO LEANEZ TOYOTA ETIOS 14 1:26.364 1.300
30 36 SANDRO ABDALA RENAULT CLIO 13 1:26.367 1.303
31 22 MARCOS FERNANDEZ NISSAN MARCH 14 1:26.449 1.385
32 37 GABRIEL SCORDIA FIAT ARGO 12 1:26.546 1.482
33 154 FACUNDO ROTONDO FIESTA KINETIC 12 1:26.675 1.611
34 30 VALDERREY ALEJANDRO TOYOTA ETIOS 12 1:26.800 1.736
35 78 ROBERTO LUNA VW TREND 11 1:26.891 1.827
36 121 NAZARENO BEGUIRISTAIN TOYOTA ETIOS 14 1:27.079 2.015
37 181 DIEGO SEGOVIA FIESTA KINETIC 11 1:28.596 3.532

S.B